Location: Luxembourg
(49.6117°N, 6.1300°E)
Time: 05:16:14
(UTC+01:00)

Vanguard 2 Rocket - Pass Details

Date: 18 January 2026
Orbit: 553 x 3286 km, 32.9° (Epoch: 10 February)

Event Time Altitude Azimuth Distance (km) Brightness Sun altitude
Exits shadow 05:36:49 11° 217° (SW) 4,383 10.0 -26.6°
Maximum altitude 05:38:54 12° 207° (SSW) 4,541 10.2 -26.2°
Drops below altitude 10° 05:42:48 10° 190° (S) 5,030 10.6 -25.6°
Sets 05:52:07 0° 165° (SSE) 6,724 11.6 -24.1°
